#timestamp,LO_Frequency,Hit,StdDev 
1633860015.5,286046993.8,P
1633860035.4,286046994.2,P
1633860055.2,286046993.7,Y
1633860075.0,286046998.6,P
1633860075.9,286046998.6,N
1633860095.8,286046996.7,N
1633860115.6,286046996.5,N
1633860135.5,286046997.0,N
1633860155.3,286046995.0,Y
1633860205.2,286046998.4,E
1633860215.1,286047000.9,N
1633860216.0,286047000.9,P
1633860235.8,286047000.5,P
1633860255.7,286046999.9,N
1633860275.5,286046999.9,N
1633860295.3,286046998.9,N
1633860315.2,286047002.5,Y
1633860335.0,286047003.5,P
1633860335.9,286047003.5,N
1633860355.8,286047003.0,N
1633860375.6,286047005.0,Y
1633860395.4,286047001.7,P
1633860415.3,286047000.0,N
1633860435.1,286046998.5,N
1633860455.9,286047002.8,N
1633860475.7,286046996.9,N
1633860495.5,286046993.7,N
1633860515.4,286046994.1,N
1633860535.2,286046993.7,N
1633860555.0,286046993.5,N
1633860555.9,286046993.5,N
1633860575.8,286046994.6,N
1633860595.6,286046993.9,N
1633860615.5,286046994.3,N
1633860635.3,286046994.5,N
1633860655.1,286046990.7,N
1633860675.9,286046991.9,N
1633860695.7,286046992.8,N
1633860715.6,286046990.6,N
1633860735.4,286046994.5,N
1633860755.2,286046991.8,N
1633860775.1,286046994.4,N
1633860776.0,286046994.4,N
1633860795.8,286046993.0,N
1633860815.6,286046988.9,Y
1633860835.5,286046994.0,P
1633860855.3,286046996.1,P
1633860875.2,286046994.2,P
1633860895.9,286046996.4,Y
1633860915.7,286046998.8,P
1633860935.6,286046996.7,N
1633860955.4,286047008.3,P
1633860975.3,286047012.0,N
1633860995.1,286047011.2,N
1633860996.0,286047011.2,N
1633861015.8,286047010.4,N
1633861035.7,286047010.7,N
1633861055.5,286047006.3,N
1633861075.3,286047003.6,N
1633861095.2,286047000.9,N
1633861115.0,286047002.1,N
1633861115.9,286047002.1,N
1633861135.8,286047001.4,N
1633861155.6,286046999.9,N
1633861175.4,286047000.7,N
1633861195.3,286046998.6,N
1633861215.1,286046997.8,N
1633861235.8,286046997.9,N
1633861255.7,286046995.4,N
1633861275.5,286046995.1,N
1633861295.4,286046993.8,N
1633861315.2,286046997.7,N
1633861335.0,286046995.6,N
1633861335.9,286046995.6,N
1633861355.8,286046995.7,N
1633861375.6,286046994.4,N
1633861395.4,286046992.5,N
1633861415.3,286046990.8,N
1633861435.1,286046990.9,N
1633861455.9,286046989.3,N
1633861475.7,286046989.9,N
1633861495.5,286046989.7,N
1633861515.4,286046991.5,N
1633861535.2,286046991.3,N
1633861555.0,286046988.9,N
1633861555.9,286046988.9,N
1633861575.8,286046990.8,N
1633861595.6,286046988.9,N
1633861615.5,286046987.9,N
1633861635.3,286046988.0,N
1633861655.1,286046986.1,Y
1633861675.9,286046990.1,P
1633861695.7,286046992.6,P
1633861715.6,286046994.6,P
1633861735.4,286046995.0,N
1633861755.2,286046993.4,Y
1633861775.1,286047001.6,P
1633861776.0,286047001.6,N
1633861795.8,286047003.9,N
1633861815.6,286047005.2,N
1633861835.5,286047004.1,N
1633861855.3,286047003.9,N
1633861875.2,286047002.4,N
1633861895.9,286047001.6,N
1633861915.7,286047003.9,N
1633861935.6,286047001.3,N
1633861955.4,286047000.8,N
1633861975.2,286046999.1,N
1633861995.1,286046998.6,N
1633861996.0,286046998.6,N
1633862015.8,286047000.1,N
1633862035.7,286046999.6,N
1633862055.5,286046999.2,N
1633862075.3,286046997.4,N
1633862095.2,286046994.3,N
1633862115.0,286046993.1,N
1633862115.9,286046993.1,N
1633862135.7,286046994.6,N
1633862155.6,286046994.8,N
1633862175.4,286046992.9,N
1633862195.3,286046990.3,N
1633862215.1,286046990.7,N
1633862216.0,286046990.7,N
1633862235.8,286046990.8,N
1633862255.7,286046990.7,N
1633862275.5,286046991.3,N
1633862295.3,286046989.0,N
1633862315.2,286046991.5,N
1633862335.0,286046994.8,N
1633862335.9,286046994.8,N
1633862355.8,286046993.3,N
1633862375.6,286046994.0,N
1633862395.4,286046993.5,N
1633862415.3,286046993.8,N
1633862435.1,286046995.3,N
1633862455.8,286046998.0,N
1633862475.7,286046995.2,N
1633862495.5,286046993.7,N
1633862515.4,286046992.4,N
1633862535.2,286046988.8,Y
1633862555.0,286046991.7,P
1633862555.9,286046991.7,P
1633862575.8,286046991.8,P
1633862595.6,286046996.3,Y
1633862615.5,286047004.3,P
1633862635.3,286047005.3,N
1633862655.1,286047004.5,N
1633862675.9,286047007.1,N
1633862695.7,286047001.8,N
1633862715.5,286047001.0,N
1633862735.4,286046998.4,N
1633862755.2,286046998.9,N
1633862775.1,286047000.4,N
1633862776.0,286047000.4,N
1633862795.8,286047004.2,N
1633862815.6,286047001.2,N
1633862835.5,286046998.1,N
1633862855.3,286046998.2,N
1633862875.1,286046997.7,N
1633862895.9,286046997.1,N
1633862915.7,286046995.3,N
1633862935.6,286046995.2,N
1633862955.4,286046996.0,N
1633862975.2,286046994.7,N
1633862995.1,286046993.0,N
1633862996.0,286046993.0,N
1633863015.8,286046995.2,N
1633863035.6,286046998.6,N
1633863055.5,286047001.1,N
1633863075.3,286046995.4,N
1633863095.2,286046993.4,N
1633863115.9,286046992.5,N
1633863135.7,286046991.6,N
1633863155.6,286046994.4,N
1633863175.4,286046995.0,N
1633863195.2,286046999.1,N
1633863215.1,286046994.9,N
1633863216.0,286046994.9,N
1633863235.8,286046994.3,N
1633863255.7,286046992.1,N
1633863275.5,286046993.0,N
1633863295.3,286046994.0,N
1633863315.2,286046993.9,N
1633863335.0,286046993.2,N
1633863335.9,286046993.2,N
1633863355.8,286046989.7,Y
1633863375.6,286046997.6,P
1633863395.4,286046998.7,N
1633863415.3,286046999.6,N
1633863435.1,286046993.5,Y
1633863455.9,286046995.7,P
1633863475.7,286046995.6,P
1633863495.5,286046996.8,P
1633863515.4,286046997.8,N
1633863535.2,286046994.1,Y
1633863555.1,286046996.0,P
1633863556.0,286046996.0,P
1633863575.8,286046996.8,P
1633863595.6,286046999.9,N
